Powrót do katalogu

STARLINK-11379

AktywnyŁącznośćVLEO
NORAD 62089·PAYLOAD·🇺🇸 United States

Wystrzelony Nov 25, 2024 z Cape Canaveral Space Force Station

Loading…

Następne Przeloty (najbliższe 24 godziny)

TLE

ŚwieżeSource: CelesTrak SupGP

Epoka: Sep 15, 2026, 03:09 UTC

1 62089C 24220B   26258.13173611  .00018917  00000+0  14700-3 0  2589
2 62089  43.0001 341.4777 0001749 256.9063 121.5714 15.70816708    15

Śledź STARLINK-11379 w czasie rzeczywistym z AllMySat

Download on the App Store